When you browse on this site, cookies collect data to enhance your experience and personalize the content and advertising you see.
Visit our Privacy Policy to learn more. By continuing to use the site, you agree to this use of cookies and data.
  • în România
  • Lista ţărilor
  • Pe 7 zile
  • Temperatura apei
  • Meteo pe hartă
  • Widget-uri
  • user-avatar
    Intrare

    Meteo pe oră la Gwatemala

    Astăzi, 20 Noiembrie, Miercuri

    Timp Temperatura Precipitaţii Vânt Presiune Umiditate
    00:00 +15°C° 0 mm 1 m/s 637 mmHg 96%
    01:00 +15°C° 0 mm 1 m/s 637 mmHg 96%
    02:00 +14°C° 0 mm 1 m/s 636 mmHg 96%
    03:00 +14°C° 0 mm 1 m/s 636 mmHg 96%
    04:00 +14°C° 0 mm 1 m/s 636 mmHg 96%
    05:00 +13°C° 0 mm 1 m/s 636 mmHg 95%
    06:00 +13°C° 0 mm 1 m/s 636 mmHg 95%
    07:00 +15°C° 0 mm 1 m/s 637 mmHg 88%
    08:00 +18°C° 0 mm 1 m/s 638 mmHg 82%
    09:00 +20°C° 0 mm 1 m/s 640 mmHg 76%
    10:00 +22°C° 0 mm 1 m/s 640 mmHg 70%
    11:00 +23°C° 0 mm 1 m/s 640 mmHg 63%
    12:00 +25°C° 0 mm 1 m/s 640 mmHg 57%
    13:00 +24°C° 0 mm 1 m/s 639 mmHg 60%
    14:00 +24°C° 0 mm 1 m/s 638 mmHg 63%
    15:00 +23°C° 0 mm 1 m/s 638 mmHg 66%
    16:00 +21°C° 0 mm 1 m/s 637 mmHg 76%
    17:00 +17°C° 0 mm 0 m/s 637 mmHg 85%
    18:00 +15°C° 0 mm 0 m/s 636 mmHg 94%
    19:00 +15°C° 0 mm 0 m/s 637 mmHg 94%
    20:00 +15°C° 0 mm 1 m/s 637 mmHg 94%
    21:00 +15°C° 0 mm 1 m/s 637 mmHg 94%
    22:00 +15°C° 0 mm 1 m/s 637 mmHg 94%
    23:00 +14°C° 0 mm 1 m/s 637 mmHg 94%

    Mâine, 21 Noiembrie, Joi

    Timp Temperatura Precipitaţii Vânt Presiune Umiditate
    00:00 +14°C° 0 mm 1 m/s 637 mmHg 94%
    01:00 +14°C° 0 mm 1 m/s 637 mmHg 94%
    02:00 +14°C° 0 mm 1 m/s 636 mmHg 93%
    03:00 +14°C° 0 mm 1 m/s 636 mmHg 93%
    04:00 +14°C° 0 mm 1 m/s 636 mmHg 93%
    05:00 +14°C° 0 mm 1 m/s 636 mmHg 93%
    06:00 +14°C° 0 mm 1 m/s 636 mmHg 93%
    07:00 +16°C° 0 mm 1 m/s 637 mmHg 86%
    08:00 +19°C° 0 mm 1 m/s 638 mmHg 79%
    09:00 +21°C° 0 mm 1 m/s 639 mmHg 72%
    10:00 +23°C° 0 mm 1 m/s 639 mmHg 68%
    11:00 +24°C° 0 mm 1 m/s 639 mmHg 63%
    12:00 +25°C° 0 mm 1 m/s 639 mmHg 59%
    13:00 +25°C° 0 mm 1 m/s 639 mmHg 63%
    14:00 +24°C° 0 mm 1 m/s 638 mmHg 67%
    15:00 +24°C° 0 mm 1 m/s 637 mmHg 71%
    16:00 +22°C° 0.1 mm 1 m/s 637 mmHg 79%
    17:00 +18°C° 0.1 mm 0 m/s 637 mmHg 87%
    18:00 +16°C° 0.1 mm 0 m/s 636 mmHg 95%
    19:00 +15°C° 0 mm 0 m/s 637 mmHg 95%
    20:00 +16°C° 0 mm 1 m/s 637 mmHg 95%
    21:00 +15°C° 0 mm 1 m/s 637 mmHg 94%
    22:00 +15°C° 0 mm 1 m/s 637 mmHg 94%
    23:00 +15°C° 0 mm 1 m/s 637 mmHg 94%

    Poimâine, 22 Noiembrie, Vineri

    Timp Temperatura Precipitaţii Vânt Presiune Umiditate
    00:00 +15°C° 0 mm 1 m/s 637 mmHg 94%
    01:00 +15°C° 0 mm 1 m/s 636 mmHg 94%
    02:00 +15°C° 0 mm 1 m/s 636 mmHg 95%
    03:00 +15°C° 0 mm 1 m/s 636 mmHg 95%
    04:00 +15°C° 0 mm 1 m/s 636 mmHg 95%
    05:00 +14°C° 0 mm 1 m/s 636 mmHg 95%
    06:00 +14°C° 0 mm 1 m/s 636 mmHg 95%
    07:00 +16°C° 0 mm 1 m/s 637 mmHg 89%
    08:00 +19°C° 0 mm 1 m/s 638 mmHg 82%
    09:00 +22°C° 0 mm 1 m/s 639 mmHg 76%
    10:00 +23°C° 0 mm 1 m/s 639 mmHg 69%
    11:00 +24°C° 0 mm 1 m/s 639 mmHg 63%
    12:00 +26°C° 0 mm 1 m/s 639 mmHg 56%
    13:00 +25°C° 0 mm 1 m/s 638 mmHg 60%
    14:00 +25°C° 0 mm 1 m/s 638 mmHg 64%
    15:00 +24°C° 0 mm 1 m/s 637 mmHg 68%
    16:00 +22°C° 0.1 mm 1 m/s 637 mmHg 77%
    17:00 +20°C° 0.1 mm 1 m/s 636 mmHg 86%
    18:00 +16°C° 0.1 mm 0 m/s 636 mmHg 95%
    19:00 +16°C° 0 mm 0 m/s 636 mmHg 95%
    20:00 +16°C° 0 mm 0 m/s 637 mmHg 95%
    21:00 +15°C° 0 mm 0 m/s 637 mmHg 95%
    22:00 +16°C° 0 mm 1 m/s 637 mmHg 95%
    23:00 +16°C° 0 mm 1 m/s 636 mmHg 95%

    23 Noiembrie, Sâmbătă

    Timp Temperatura Precipitaţii Vânt Presiune Umiditate
    00:00 +15°C° 0 mm 1 m/s 636 mmHg 95%
    01:00 +15°C° 0 mm 1 m/s 636 mmHg 95%
    02:00 +15°C° 0 mm 1 m/s 635 mmHg 94%
    03:00 +14°C° 0 mm 1 m/s 635 mmHg 94%
    04:00 +14°C° 0 mm 1 m/s 635 mmHg 93%
    05:00 +14°C° 0 mm 1 m/s 635 mmHg 93%
    06:00 +14°C° 0 mm 1 m/s 635 mmHg 92%
    07:00 +18°C° 0 mm 1 m/s 637 mmHg 84%
    08:00 +18°C° 0 mm 0 m/s 638 mmHg 77%
    09:00 +21°C° 0 mm 0 m/s 639 mmHg 69%
    10:00 +24°C° 0 mm 1 m/s 639 mmHg 64%
    11:00 +25°C° 0 mm 1 m/s 639 mmHg 60%
    12:00 +26°C° 0 mm 1 m/s 639 mmHg 56%
    13:00 +25°C° 0.1 mm 1 m/s 638 mmHg 61%
    14:00 +25°C° 0.1 mm 1 m/s 637 mmHg 67%
    15:00 +24°C° 0.1 mm 1 m/s 637 mmHg 72%
    16:00 +22°C° 0.2 mm 1 m/s 636 mmHg 80%
    17:00 +20°C° 0.2 mm 1 m/s 636 mmHg 88%
    18:00 +17°C° 0.2 mm 0 m/s 636 mmHg 95%
    19:00 +16°C° 0 mm 0 m/s 636 mmHg 95%
    20:00 +18°C° 0 mm 1 m/s 637 mmHg 96%
    21:00 +18°C° 0 mm 1 m/s 637 mmHg 96%
    22:00 +16°C° 0 mm 1 m/s 637 mmHg 95%
    23:00 +16°C° 0 mm 1 m/s 636 mmHg 95%

    24 Noiembrie, Duminică

    Timp Temperatura Precipitaţii Vânt Presiune Umiditate
    00:00 +16°C° 0 mm 1 m/s 636 mmHg 95%
    01:00 +16°C° 0 mm 1 m/s 636 mmHg 94%
    02:00 +16°C° 0 mm 1 m/s 636 mmHg 94%
    03:00 +16°C° 0 mm 1 m/s 635 mmHg 94%
    04:00 +16°C° 0 mm 1 m/s 635 mmHg 95%
    05:00 +15°C° 0 mm 1 m/s 636 mmHg 95%
    06:00 +15°C° 0 mm 1 m/s 636 mmHg 96%
    07:00 +18°C° 0 mm 1 m/s 637 mmHg 90%
    08:00 +20°C° 0 mm 1 m/s 638 mmHg 85%
    09:00 +22°C° 0 mm 1 m/s 639 mmHg 79%
    10:00 +23°C° 0 mm 1 m/s 639 mmHg 72%
    11:00 +24°C° 0 mm 1 m/s 639 mmHg 65%
    12:00 +26°C° 0 mm 1 m/s 639 mmHg 58%
    13:00 +25°C° 0.1 mm 1 m/s 638 mmHg 60%
    14:00 +25°C° 0.1 mm 1 m/s 637 mmHg 63%
    15:00 +24°C° 0.1 mm 1 m/s 637 mmHg 65%
    16:00 +20°C° 0.1 mm 0 m/s 636 mmHg 74%
    17:00 +18°C° 0.1 mm 0 m/s 636 mmHg 83%
    18:00 +16°C° 0.1 mm 0 m/s 636 mmHg 93%
    19:00 +16°C° 0 mm 0 m/s 636 mmHg 92%
    20:00 +18°C° 0 mm 1 m/s 636 mmHg 92%
    21:00 +18°C° 0 mm 1 m/s 637 mmHg 91%
    22:00 +18°C° 0 mm 1 m/s 637 mmHg 93%
    23:00 +18°C° 0 mm 1 m/s 636 mmHg 95%

    25 Noiembrie, Luni

    Timp Temperatura Precipitaţii Vânt Presiune Umiditate
    00:00 +16°C° 0 mm 1 m/s 636 mmHg 96%
    01:00 +16°C° 0 mm 1 m/s 636 mmHg 96%
    02:00 +16°C° 0 mm 1 m/s 635 mmHg 96%
    03:00 +16°C° 0 mm 1 m/s 635 mmHg 96%
    04:00 +15°C° 0 mm 1 m/s 635 mmHg 96%
    05:00 +15°C° 0 mm 1 m/s 635 mmHg 96%
    06:00 +15°C° 0 mm 1 m/s 635 mmHg 96%
    07:00 +18°C° 0 mm 1 m/s 636 mmHg 89%
    08:00 +20°C° 0 mm 1 m/s 636 mmHg 82%
    09:00 +22°C° 0 mm 1 m/s 637 mmHg 75%
    10:00 +23°C° 0 mm 1 m/s 637 mmHg 71%
    11:00 +24°C° 0 mm 1 m/s 637 mmHg 67%
    12:00 +25°C° 0 mm 1 m/s 637 mmHg 63%
    13:00 +25°C° 0.5 mm 1 m/s 636 mmHg 69%
    14:00 +24°C° 0.5 mm 1 m/s 635 mmHg 76%
    15:00 +23°C° 0.5 mm 1 m/s 635 mmHg 82%
    16:00 +22°C° 0.3 mm 1 m/s 635 mmHg 87%
    17:00 +20°C° 0.3 mm 1 m/s 634 mmHg 91%
    18:00 +17°C° 0.3 mm 0 m/s 634 mmHg 96%
    19:00 +17°C° 0 mm 0 m/s 635 mmHg 96%
    20:00 +16°C° 0 mm 0 m/s 635 mmHg 96%
    21:00 +16°C° 0 mm 0 m/s 635 mmHg 96%
    22:00 +16°C° 0 mm 0 m/s 635 mmHg 96%
    23:00 +16°C° 0 mm 0 m/s 635 mmHg 97%
    Arată mai mult